Location: Unspecified
(0.0000°N, 0.0000°E)
Time: 20:00:43
(UTC+00:00)

Tiros 1 despin weight - Pass Details

Date: 03 June 2022
Orbit: 591 x 639 km, 48.2° (Epoch: 25 June)

Event Time Altitude Azimuth Distance (km) Brightness Sun altitude
Rises 10:58:43 0° 200° (SSW) 2,932 ? 63.4°
Reaches altitude 10° 11:01:19 10° 188° (S) 2,024 ? 63.7°
Maximum altitude 11:05:19 28° 129° (SE) 1,206 ? 64.2°
Drops below altitude 10° 11:09:16 10° 71° (ENE) 2,014 ? 64.7°
Sets 11:11:51 0° 59° (ENE) 2,916 ? 65.0°
